Home   Weather   Tehran   Past weeks

Flag for Iran Past Weather in Tehran, Iran — Yesterday and Last 2 Weeks

Now
61 °F

Passing clouds.


Feels Like: 61 °F
Forecast: 60 / 66 °F
Wind: No wind

Location: Tehran-Mehrabad

Current Time: Oct 16, 2018 at 3:01:55 am

Latest Report: Oct 16, 2018 at 2:30 am


Visibility: N/A

Pressure: 30.21 "Hg (26.28 "Hg at 1179m altitude)

Humidity: 55%

Dew Point: 45 °F

Location of TehranLocation

Past Weather in Tehran — Graph

°F

Tehran Temperature Yesterday

Maximum temperature yesterday: 77 °F (at 1:00 pm)
Minimum temperature yesterday: 57 °F (at 7:00 am)
Average temperature yesterday: 66 °F

High & Low Weather Summary for the Past Weeks

 TemperatureHumidityPressure
High90 °F (Oct 3, 2:00 pm)82% (Oct 6, 10:00 am)30.39 "Hg (Oct 6, 10:00 am)
Low54 °F (Oct 7, 4:00 am)10% (Oct 5, 5:00 pm)30.01 "Hg (Oct 3, 2:30 pm)
Average71 °F36%30.17 "Hg
* Reported Oct 1 1:30 am — Oct 16 2:00 am, Tehran. Weather by CustomWeather, © 2018

Note: Actual official high and low records may vary slightly from our data, if they occured in-between our weather recording intervals... More about our weather records

Advertising

Tehran Weather History for the Previous 24 Hours

Scroll right to see more
 ConditionsComfort  
Time TempWeatherWind HumidityBarometerVisibility
2:00 am
Tue, Oct 16
63 °FClear.5 mph49%30.21 "Hg10 mi
1:30 am63 °FClear.No wind49%30.21 "Hg10 mi
1:00 am63 °FClear.5 mph52%30.18 "Hg10 mi
12:30 am63 °FClear.7 mph52%30.21 "Hg10 mi
12:00 am63 °FClear.9 mph52%30.21 "Hg10 mi
11:30 pm
Mon, Oct 15
61 °FClear.9 mph59%30.21 "Hg10 mi
11:00 pm63 °FClear.12 mph56%30.18 "Hg10 mi
10:30 pm66 °FClear.9 mph37%30.18 "Hg10 mi
9:30 pm64 °FClear.7 mph49%30.18 "Hg10 mi
9:00 pm66 °FClear.5 mph35%30.15 "Hg10 mi
8:30 pm68 °FClear.7 mph28%30.15 "Hg10 mi
8:00 pm68 °FPassing clouds.No wind38%30.15 "HgN/A
7:30 pm70 °FPassing clouds.5 mph27%30.12 "HgN/A
7:00 pm70 °FPassing clouds.9 mph21%30.12 "HgN/A
6:30 pm72 °FPassing clouds.14 mph20%30.09 "HgN/A
6:00 pm72 °FPassing clouds.14 mph20%30.12 "HgN/A
5:30 pm73 °FScattered clouds.16 mph17%30.09 "HgN/A
5:00 pm75 °FPassing clouds.14 mph24%30.09 "HgN/A
4:30 pm75 °FPassing clouds.16 mph27%30.09 "HgN/A
4:00 pm75 °FScattered clouds.21 mph21%30.07 "HgN/A
3:30 pm77 °FScattered clouds.21 mph22%30.07 "HgN/A
3:00 pm77 °FScattered clouds.18 mph24%30.09 "HgN/A
2:30 pm77 °FScattered clouds.18 mph24%30.07 "HgN/A
2:00 pm77 °FScattered clouds.23 mph24%30.09 "Hg5 mi
1:30 pm77 °FScattered clouds.21 mph22%30.09 "Hg4 mi
1:00 pm77 °FScattered clouds.18 mph24%30.09 "Hg4 mi
12:30 pm73 °FScattered clouds.12 mph29%30.12 "Hg3 mi
12:00 pm72 °FPassing clouds.No wind38%30.15 "Hg2 mi
11:30 am70 °FPassing clouds.5 mph40%30.15 "Hg2 mi
11:00 am68 °FPassing clouds.7 mph46%30.18 "Hg2 mi
10:30 am66 °FPassing clouds.7 mph49%30.18 "Hg2 mi
10:00 am66 °FScattered clouds.7 mph49%30.18 "Hg3 mi
9:30 am64 °FScattered clouds.7 mph56%30.18 "Hg3 mi
9:00 am63 °FScattered clouds.5 mph59%30.18 "Hg4 mi
8:30 am61 °FHaze.5 mph63%30.18 "Hg4 mi
8:00 am59 °FClear.No wind68%30.18 "Hg4 mi
7:30 am57 °FClear.5 mph72%30.15 "Hg4 mi
7:00 am57 °FSunny.5 mph67%30.15 "Hg10 mi
6:30 am59 °FClear.5 mph63%30.12 "Hg10 mi
6:00 am59 °FClear.5 mph63%30.12 "Hg10 mi
5:30 am59 °FClear.5 mph63%30.12 "Hg10 mi
5:00 am59 °FClear.No wind63%30.12 "Hg10 mi
4:30 am59 °FClear.No wind63%30.12 "Hg10 mi
4:00 am61 °FPassing clouds.5 mph55%30.15 "HgN/A
3:30 am59 °FPassing clouds.5 mph63%30.15 "HgN/A
3:00 am59 °FClear.5 mph63%30.15 "Hg10 mi
Weather by CustomWeather, © 2018

See weather overview